Hourly Data Report for July 23, 2017

PITT MEADOWS CS
BRITISH COLUMBIA

49°12'29.964" N
122°41'24.076" W
5.00 m
1106178
71775
WMM

Download Data

Hourly Data (July 2017)
Hourly Data Report for July 23, 2017
TIME
LST
Temp Definition
°C
Dew Point Definition
°C
Rel Hum Definition
%
Precip. Amount Definition
mm

Wind Dir Definition
10's deg

Wind Spd Definition
km/h
Visibility Definition
km
Stn Press Definition
kPa
Hmdx Definition


Wind Chill Definition


Weather Definition


00:00 16.0 14.5 91 0.0 0 1   101.86     LegendNANA
01:00 16.9 15.2 90 0.0 31 3   101.82     LegendNANA
02:00 16.9 15.3 90 0.0 34 2   101.79     LegendNANA
03:00 16.5 15.3 93 0.0 27 3   101.78     LegendNANA
04:00 17.1 15.1 88 0.0 35 2   101.76     LegendNANA
05:00 15.9 14.5 92 0.0   0   101.76     LegendNANA
06:00 17.4 14.9 85 0.0 23 1   101.77     LegendNANA
07:00 18.3 15.0 81 0.0 22 2   101.78     LegendNANA
08:00 20.7 15.7 73 0.0 24 2   101.80 25   LegendNANA
09:00 19.8 15.7 77 0.0 25 4   101.80     LegendNANA
10:00 20.7 15.5 72 0.0 21 5   101.79 25   LegendNANA
11:00 22.7 14.9 61 0.0 19 7   101.77 27   LegendNANA
12:00 23.7 14.5 56 0.0 22 8   101.72 27   LegendNANA
13:00 23.4 14.1 56 0.0 24 10   101.69 27   LegendNANA
14:00 24.4 14.5 54 0.0 24 14   101.71 28   LegendNANA
15:00 24.8 13.0 48 0.0 27 13   101.69 28   LegendNANA
16:00 24.4 12.4 47 0.0 23 9   101.63 27   LegendNANA
17:00 23.9 11.9 47 0.0 25 11   101.62 26   LegendNANA
18:00 22.9 10.5 46 0.0 23 9   101.60     LegendNANA
19:00 22.3 10.6 48 0.0 15 4   101.59     LegendNANA
20:00 20.1 11.2 56 0.0 18 4   101.59     LegendNANA
21:00 18.0 11.0 64 0.0 18 3   101.61     LegendNANA
22:00 15.9 11.7 76 0.0 12 3   101.64     LegendNANA
23:00 15.4 12.1 80 0.0 9 5   101.67     LegendNANA

Notes on Data Quality.

Legend

  • E = Estimated
  • M = Missing
  • NA = Not Available*
  • [empty] = Indicates an unobserved value
Date modified: